Погода в Минске

Погода в Минске : погода сейчас, прогноз погоды и архив. Всё, что Вы хотите узнать о погоде в Минске!

Хотите узнать прогноз погоды Минск? Тогда Вам сюда: Погода Минск

Поиск расширенной информации на нашем сайте:

Другие новости

Новости СМИ2

Главная страница сайта

Новости сайта

03.07.2017

Напоминаем, что на нашем специализированном сайте Метеоцентр.Азия вы можете получить высокодетализированные автоматические прогнозы погоды по пунктам России, СНГ и мира в авиационном формате (включающие направление и скорость ветра, видимость, явления погоды, количество и форму облачности, нижнюю и верхнюю границу облачности).


Погода в Минске - сегодня

Время (UTC), дата Ветер
(°,м/с) 
Видим.   Явления Облачность Т
(°С)
Тd
(°С)
f(%) Тe
(°С)
Pmin
(гПа)
dP
(гПа)
Po
(мм)
O2
(г/м3)
Тmin Tmax R s Состояние
почвы
15 16.09.18 270 (З) 25000 м    6/6 1200 м 
[Cu hum]
+17.2 +4.9 44 +18  1020.8  0.4  746  282           
18 16.09.18 250 (З) 24000 м    ясно 
+13.8 +5.2 56 +14  1022.5  1.3  747  286    +17.9       
21 16.09.18 тихо ()   26000 м    ясно 
+9.2 +6 80 +9  1023.6  0.6  747  290           
00 17.09.18 240 (ЮЗ) 27000 м    ясно 
+10.3 +5.2 71 +11  1023.7  0.2  747  289           
03 17.09.18 тихо ()   22000 м    ясно 
+7.3 +5.9 91 +7  1024.2  0.2  747  292           
09 17.09.18 210 (ЮЗ) 17000 м    4/3 600 м верхняя 
[Cu hum|Ci fib]
+17.4 +8.6 56 +19  1023.1  -0.3  747  282           
12 17.09.18 210 (ЮЗ) 28000 м    8/6 600 м средняя, верхняя 
[Cu Sc|Ac trans|Ci fib]
+18.9 +8 49 +20  1021.7  -1.3  746  280           
15 17.09.18 180 (Ю) 2{10}  24000 м    8/5 1000 м средняя, верхняя 
[Cu hum|Ac trans|Ci fib]
+18.3 +8.2 52 +19  1020.4  -1.3  745  280           
18 17.09.18 170 (Ю) 21000 м    ясно 
+16.1 +8.9 62 +17  1020.4  -0.2  745  282    +19.8       
21 17.09.18 170 (Ю) 23000 м    ясно 
+14.7 +9.2 70 +16  1019.9  -0.6  745  283           
00 18.09.18 200 (Ю) 27000 м    ясно 
+14.5 +9.4 71 +17  1019.6  -0.3  745  283           
06 18.09.18 220 (ЮЗ) 18000 м    10/0 средняя 
[As op]
+14 +10.1 77 +16  1021.1  746  284  +13.5         
09 18.09.18 240 (ЮЗ) 26000 м    8/0 средняя, верхняя 
[Ac trans|Ci fib]
+18.3 +11.3 64 +22  1021.3  0.6  746  280           
12 18.09.18 240 (ЮЗ) 26000 м    8/0 средняя, верхняя 
[Ac trans|Ci fib]
+21.4 +9.2 46 +22  1020.2  -0.8  746  277           
15 18.09.18 170 (Ю) 22000 м    4/0 верхняя 
[Ci fib]
+22 +9.1 44 +22  1019.2  -0.9  745  276           
18 18.09.18 тихо ()   23000 м    3/0 верхняя 
[Ci fib]
+17.8 +10.1 61 +19  1020.4  0.8  745  280    +23.3       
21 18.09.18 тихо ()   18000 м    ясно 
+16 +11.2 73 +19  1020.3  -0.3  745  282           
00 19.09.18 тихо ()   14000 м    ясно 
+12.2 +10.9 92 +15  1020.6  -0.1  745  285           
03 19.09.18 тихо ()   10 км    ясно 
+12.6 +11.3 92 +16  1020.7  0.1  745  285           
06 19.09.18 130 (ЮВ) 11000 м    6/0 верхняя 
[Ci fib]
+15 +12.1 83 +20  1020.2  -0.2  745  282  +11.4         
09 19.09.18 160 (Ю) 21000 м    6/0 верхняя 
[Ci fib]
+22.4 +14.3 60 +30  1019.1  -0.3  745  274           
12 19.09.18 170 (Ю) 20000 м    6/0 верхняя 
[Ci fib]
+24.9 +11.9 44 +29  1018  -0.8  744  273           
15 19.09.18 160 (Ю) 22000 м    6/0 верхняя 
[Ci fib]
+24.5 +13 49 +30  1017.4  -0.7  744  272           
18 19.09.18 170 (Ю) 18000 м    ясно 
+21.4 +14.1 63 +29  1017.7  744  275    +25.8       
21 19.09.18 240 (ЮЗ) 18000 м    ясно 
+19.3 +13.8 70 +27  1018  0.1  744  277           
Время (UTC), дата Ветер
(°,м/с) 
Видим.   Явления Облачность Т
(°С)
Тd
(°С)
f(%) Тe
(°С)
Pmin
(гПа)
dP
(гПа)
Po
(мм)
O2
(г/м3)
Тmin Tmax R s Состояние
почвы

Для получения пояснительной информации подведите курсор к названию столбца.

ПОГОДА в Минске - архив

Всё, что Вы хотите узнать о погоде в Минске - удобно и подробно!

Выберите нужную дату (начиная с 1 января 2015* года) и нажмите кнопку "Найти".
Будут отображены архивные сводки погоды по пункту Минск, начиная с указанной даты.


Отображать данные в формате CSV (для использования в таблицах Excel)


Внимание! Наш архив погоды предназначен исключительно для личного некоммерческого использования в познавательных целях. Если Вам необходимы официальные справки о состоянии погоды (для производственных, юридических, коммерческих и т.п. целей), обращайтесь в органы Росгидромета.

*Примечание: данная дата относится к архиву по метеостанциям СССР (Россия, СНГ, Балтия).
Архив по метеостанциям Зарубежной Европы и Азии (кроме Китая) хранится 10 дней, по другим регионам земного шара (Китай, Африка, Америка, Австралия, Океания) - 1 день.

Минск - район местоположения метеостанции


Название, широта, долгота, высота метеостанции:
Минск (город) 53.9°ш. 27.6°д. 231 м над ур. моря [Беларусь]

Дополнительная информация

В oтличие oт бoльшинства пoгoдных сайтoв мы публикуем пoдрoбную метеoинфoрмацию в детальнoм прoфессиoнальнoм фoрмате.

Характеристики температуры и влажнoсти вoздуха измеряются на высoте 2 м в тени вдали oт зданий и деревьев.
Скoрoсть ветра измеряется на высoте 10 м (на урoвне рoста челoвека скoрoсть ветра ниже в 1.5-2 раза). Если метеoстанция нахoдится в гoрoде или в лесу, тo скoрoсть ветра занижена на 2-4 м/с пo сравнению с oткрытым местoм. Скoрoсть ветра над акватoриями крупных рек и oзёр, а также на вершинах хoлмoв на 2-5 м/с выше, чем в oбычных услoвиях.
Атмoсфернoе давление в разных тoчках местнoсти мoжет значительнo oтличаться oт давления на метеoстанции, в зависимoсти oт услoвий рельефа (при пoдъёме на 10 м давление пoнижается примернo на 1 мм рт.ст.).